MMS 4

Last updated on Thu Jul 03 2025 00:02:38 GMT+0000 (Coordinated Universal Time)

1 40485U 15011D 25183.58335648 -.00000909 00000+0 00000+0 0 9997 2 40485 65.2904 354.8418 8695125 159.8757 225.3595 0.28487271 1359
UTC large
Height (km)
Speed (km/s)
/
Latitude / Longitude
Inclination (degrees)
Orbital Period (minutes)
Azimuth
Elevation
Range (km)
Doppler Factor

Next 0 passes for location: London (51.5072 / 0.1276)

Sorry there are no passes over London.